Weather History for Bluefield, WV

Change the Weather History Date:

Tuesday, December 11, 2012

  Actual Average Record
Temperature  
Mean Temperature 33 °F 38 °F  
Max Temperature 37 °F 46 °F 69 °F (2007)
Min Temperature 28 °F 30 °F -2 °F (1962)
Degree Days  
Heating Degree Days 32 27  
Month to date heating degree days 146 279  
Since 1 July heating degree days 1218 1182  
Cooling Degree Days 0 0  
Month to date cooling degree days 0 0  
Year to date cooling degree days 1007 853  
Moisture  
Dew Point 28 °F    
Average Humidity 81    
Maximum Humidity 92    
Minimum Humidity 69    
Precipitation  
Precipitation 0.01 in 0.10 in 1.53 in (2008)
Month to date precipitation 0.91 1.08  
Year to date precipitation 41.29 37.80  
Snow  
Snow T in - - ()
Month to date snowfall T  
Since 1 July snowfall 9.6  
Snow Depth 0.00 in    
Sea Level Pressure  
Sea Level Pressure 29.99 in    
Wind  
Wind Speed 5 mph (WNW)    
Max Wind Speed 13 mph    
Max Gust Speed 17 mph    
Visibility 6 miles    
Events Snow    
T = Trace of Precipitation, MM = Missing Value Source: NWS Daily Summary

Daily Weather History Graph

Daily Weather History Graph

Search for Another Location

Airport:

Trip Planner

Search our weather history database for the weather conditions in past years. The results will help you decide how hot, cold, wet, or windy it might be!

Date:

Astronomy

Dec. 11, 2012 Rise Set
Actual Time 7:29 AM EST 5:07 PM EST
Civil Twilight 7:00 AM EST 5:36 PM EST
Nautical Twilight 6:27 AM EST 6:09 PM EST
Astronomical Twilight 5:55 AM EST 6:40 PM EST
Moon 5:23 AM EST (12/11) 3:44 PM EST (12/11)
Length of Visible Light 10h 36m
Length of Day
9h 38m
Waning Crescent, 4% of the Moon is Illuminated
Dec 11
Waning Crescent
Dec 13
New
Dec 20
First Quarter
Dec 28
Full
Jan 4
Last Quarter

Hourly Weather History & Observations

Time (EST) Temp. Windchill Dew Point Humidity Pressure Visibility Wind Dir Wind Speed Gust Speed Precip Events Conditions
12:52 AM 37.0 °F 32.4 °F 33.1 °F 86% 29.81 in 10.0 mi West 5.8 mph - N/A   Overcast
1:52 AM 37.0 °F 32.4 °F 33.1 °F 86% 29.81 in 8.0 mi West 5.8 mph - N/A   Overcast
2:52 AM 36.0 °F 30.3 °F 33.1 °F 89% 29.83 in 10.0 mi NW 6.9 mph - N/A   Overcast
3:11 AM 35.6 °F 29.9 °F 32.0 °F 87% 29.84 in 1.8 mi NW 6.9 mph - N/A   Overcast
3:24 AM 35.6 °F 30.7 °F 33.8 °F 93% 29.85 in 0.8 mi NW 5.8 mph - N/A   Mist
3:29 AM 35.6 °F 29.9 °F 33.8 °F 93% 29.85 in 1.2 mi NNW 6.9 mph - N/A   Overcast
3:36 AM 35.6 °F 29.9 °F 33.8 °F 93% 29.85 in 3.0 mi NW 6.9 mph - N/A   Overcast
3:52 AM 36.0 °F 30.3 °F 33.1 °F 89% 29.83 in 5.0 mi WNW 6.9 mph - N/A   Overcast
4:07 AM 35.6 °F 29.9 °F 32.0 °F 87% 29.85 in 10.0 mi WNW 6.9 mph - N/A   Overcast
4:18 AM 35.6 °F 29.9 °F 32.0 °F 87% 29.85 in 10.0 mi WNW 6.9 mph - N/A   Overcast
4:39 AM 35.6 °F 31.7 °F 32.0 °F 87% 29.86 in 4.0 mi WNW 4.6 mph - 0.00 in Snow Light Snow
4:52 AM 35.1 °F 31.0 °F 32.0 °F 89% 29.86 in 4.0 mi WNW 4.6 mph - 0.00 in Snow Light Snow
5:18 AM 35.6 °F 30.7 °F 32.0 °F 87% 29.88 in 5.0 mi NW 5.8 mph - 0.00 in Snow Light Snow
5:52 AM 35.1 °F 30.1 °F 32.0 °F 89% 29.88 in 9.0 mi WNW 5.8 mph - 0.00 in   Overcast
6:37 AM 33.8 °F 28.6 °F 30.2 °F 87% 29.90 in 2.0 mi WNW 5.8 mph - 0.00 in Snow Light Snow
6:52 AM 34.0 °F 28.8 °F 30.9 °F 89% 29.91 in 1.8 mi WNW 5.8 mph - 0.01 in Snow Light Snow
7:02 AM 33.8 °F 26.4 °F 30.2 °F 87% 29.92 in 2.5 mi WNW 9.2 mph - 0.00 in Snow Light Snow
7:07 AM 33.8 °F 27.7 °F 30.2 °F 87% 29.93 in 3.0 mi WNW 6.9 mph - 0.00 in Snow Light Snow
7:52 AM 34.0 °F 28.0 °F 28.9 °F 82% 29.94 in 10.0 mi WNW 6.9 mph - 0.00 in   Overcast
8:52 AM 33.1 °F 27.7 °F 28.9 °F 85% 29.98 in 10.0 mi WNW 5.8 mph - 0.00 in   Overcast
9:24 AM 33.8 °F 28.6 °F 28.4 °F 81% 29.97 in 2.5 mi WNW 5.8 mph - 0.00 in Snow Light Snow
9:27 AM 33.8 °F 29.6 °F 28.4 °F 81% 29.98 in 4.0 mi WNW 4.6 mph - 0.00 in Snow Light Snow
9:32 AM 33.8 °F 28.6 °F 28.4 °F 81% 29.98 in 2.5 mi NW 5.8 mph - 0.00 in Snow Light Snow
9:38 AM 33.8 °F 27.7 °F 28.4 °F 81% 29.99 in 1.0 mi WNW 6.9 mph - 0.00 in Snow Light Snow
9:43 AM 33.8 °F 27.7 °F 28.4 °F 81% 29.99 in 1.8 mi WNW 6.9 mph - 0.00 in Snow Light Snow
9:45 AM 33.8 °F 27.0 °F 28.4 °F 81% 29.99 in 2.5 mi NW 8.1 mph - 0.00 in Snow Light Snow
9:48 AM 33.8 °F 28.6 °F 28.4 °F 81% 30.00 in 7.0 mi West 5.8 mph - 0.00 in Snow Light Snow
9:52 AM 33.1 °F 25.5 °F 28.0 °F 82% 30.03 in 9.0 mi West 9.2 mph - 0.00 in   Overcast
10:03 AM 33.8 °F 27.0 °F 28.4 °F 81% 30.00 in 10.0 mi WNW 8.1 mph - N/A   Overcast
10:35 AM 33.8 °F 25.8 °F 28.4 °F 81% 30.01 in 1.5 mi WNW 10.4 mph - 0.00 in Snow Light Snow
10:43 AM 32.0 °F 24.8 °F 28.4 °F 87% 30.01 in 0.8 mi WNW 8.1 mph - 0.00 in Snow Light Snow
10:50 AM 33.8 °F 25.8 °F 28.4 °F 81% 30.02 in 1.2 mi WNW 10.4 mph - 0.00 in Snow Light Snow
10:52 AM 33.1 °F 26.1 °F 28.0 °F 82% 30.06 in 1.5 mi NW 8.1 mph - 0.00 in Snow Light Snow
10:55 AM 33.8 °F 27.7 °F 28.4 °F 81% 30.02 in 3.0 mi NW 6.9 mph - 0.00 in Snow Light Snow
11:45 AM 33.8 °F 27.0 °F 28.4 °F 81% 30.01 in 10.0 mi NW 8.1 mph - 0.00 in   Overcast
11:52 AM 34.0 °F 28.0 °F 27.0 °F 75% 30.04 in 10.0 mi WNW 6.9 mph - 0.00 in   Overcast
12:21 PM 33.8 °F 27.7 °F 26.6 °F 75% 30.01 in 10.0 mi NW 6.9 mph - N/A   Overcast
12:52 PM 33.1 °F 26.9 °F 26.1 °F 75% 30.04 in 10.0 mi NW 6.9 mph - N/A   Overcast
1:43 PM 32.0 °F 26.4 °F 26.6 °F 80% 30.01 in 5.0 mi NW 5.8 mph - 0.00 in Snow Light Snow
1:52 PM 33.1 °F 26.1 °F 26.1 °F 75% 30.05 in 8.0 mi WNW 8.1 mph - 0.00 in   Overcast
2:16 PM 32.0 °F 26.4 °F 24.8 °F 75% 30.01 in 10.0 mi Variable 5.8 mph - N/A   Overcast
2:52 PM 32.0 °F 28.7 °F 25.0 °F 75% 30.07 in 10.0 mi WNW 3.5 mph - N/A   Overcast
3:52 PM 30.9 °F 25.2 °F 24.1 °F 76% 30.09 in 10.0 mi WNW 5.8 mph - N/A   Overcast
4:52 PM 30.9 °F 25.2 °F 24.1 °F 76% 30.12 in 10.0 mi NW 5.8 mph - N/A   Overcast
5:52 PM 30.0 °F - 23.0 °F 75% 30.14 in 10.0 mi Calm Calm - N/A   Overcast
6:52 PM 30.0 °F 26.5 °F 23.0 °F 75% 30.16 in 10.0 mi NNW 3.5 mph - N/A   Overcast
7:52 PM 30.0 °F 25.2 °F 23.0 °F 75% 30.17 in 10.0 mi WNW 4.6 mph - N/A   Overcast
8:52 PM 30.0 °F - 21.9 °F 72% 30.18 in 10.0 mi Calm Calm - N/A   Overcast
9:52 PM 28.9 °F - 21.9 °F 75% 30.19 in 10.0 mi Calm Calm - N/A   Overcast
10:52 PM 28.9 °F - 21.9 °F 75% 30.21 in 10.0 mi Calm Calm - N/A   Overcast
11:31 PM 28.4 °F - 21.2 °F 74% 30.14 in 10.0 mi Calm Calm - N/A   Scattered Clouds
11:52 PM 28.0 °F - 21.9 °F 78% 30.20 in 10.0 mi Calm Calm - N/A   Clear